This is the latest recevied weather packets stored in our database for station/object K1RFS. If no packets are shown the sender has not sent any weather packets the latest 10 day(s).
| Time | Temp. | Humidity | Pressure | Rain* | Wind** | Luminosity | Snow |
|---|---|---|---|---|---|---|---|
| 1787980387 | 21.11° C | 59% | 1004.9 hPa | 0 mm | - | 0 W/m² | - |
| 1787980082 | 21.11° C | 59% | 1005 hPa | 0 mm | - | 0 W/m² | - |
| 1787979778 | 21.11° C | 60% | 1005 hPa | 0 mm | - | 0 W/m² | - |
| 1787979477 | 21.11° C | 59% | 1005.2 hPa | 0 mm | - | 0 W/m² | - |
| 1787979177 | 21.11° C | 58% | 1005.3 hPa | 0 mm | - | 0 W/m² | - |
| 1787978875 | 21.11° C | 56% | 1005 hPa | 0 mm | - | 0 W/m² | - |
| 1787978571 | 21.67° C | 55% | 1004.8 hPa | 0 mm | - | 0 W/m² | - |
| 1787978267 | 21.67° C | 55% | 1004.8 hPa | 0 mm | - | 0 W/m² | - |
| 1787977966 | 21.67° C | 55% | 1004.7 hPa | 0 mm | - | 0 W/m² | - |
| 1787977665 | 21.67° C | 55% | 1004.6 hPa | 0 mm | - | 0 W/m² | - |
| 1787977362 | 21.67° C | 57% | 1004.6 hPa | 0 mm | - | 0 W/m² | - |
| 1787977057 | 21.11° C | 58% | 1004.8 hPa | 0 mm | - | 0 W/m² | - |
| 1787976752 | 21.11° C | 59% | 1004.9 hPa | 0 mm | - | 0 W/m² | - |
| 1787976446 | 21.11° C | 60% | 1004.9 hPa | 0 mm | - | 0 W/m² | - |
| 1787976141 | 21.11° C | 59% | 1004.7 hPa | 0 mm | - | 0 W/m² | - |
| 1787975840 | 20.56° C | 59% | 1004.8 hPa | 0 mm | - | 0 W/m² | - |
| 1787975540 | 21.11° C | 60% | 1004.8 hPa | 0 mm | - | 0 W/m² | - |
| 1787975238 | 21.11° C | 60% | 1004.7 hPa | 0 mm | - | 0 W/m² | - |
| 1787974938 | 21.11° C | 60% | 1005 hPa | 0 mm | - | 0 W/m² | - |
| 1787974637 | 21.11° C | 61% | 1005 hPa | 0 mm | - | 0 W/m² | - |
| 1787974332 | 21.67° C | 61% | 1005.2 hPa | 0 mm | - | 0 W/m² | - |
| 1787974030 | 21.67° C | 61% | 1005.2 hPa | 0 mm | - | 0 W/m² | - |
| 1787973726 | 21.67° C | 61% | 1004.9 hPa | 0 mm | - | 0 W/m² | - |
| 1787973421 | 21.67° C | 61% | 1005 hPa | 0 mm | - | 0 W/m² | - |
| 1787973115 | 22.22° C | 61% | 1004.7 hPa | 0 mm | - | 0 W/m² | - |
* Rain latest hour (hover to see other rain measurements)
** Current wind speed in m/s (hover to see current wind gust speed)